This is the latest recevied weather packets stored in our database for station/object W6UA-13. If no packets are shown the sender has not sent any weather packets the latest 10 day(s).
| Time | Temp. | Humidity | Pressure | Rain* | Wind** | Luminosity | Snow |
|---|---|---|---|---|---|---|---|
| 1777337395 | 17.78° C | 51% | 1017.5 hPa | 0 mm | - | 295 W/m² | - |
| 1777336495 | 18.33° C | 51% | 1017.5 hPa | 0 mm | - | 225 W/m² | - |
| 1777335595 | 18.33° C | 54% | 1017.2 hPa | 0 mm | - | 427 W/m² | - |
| 1777334695 | 18.33° C | 53% | 1017 hPa | 0 mm | - | 364 W/m² | - |
| 1777333795 | 17.78° C | 57% | 1016.9 hPa | 0 mm | - | 524 W/m² | - |
| 1777333249 | 17.78° C | 55% | 1016.9 hPa | 0 mm | - | 566 W/m² | - |
| 1777333197 | 17.78° C | 55% | 1016.9 hPa | 0 mm | - | 566 W/m² | - |
| 1777332895 | 17.78° C | 55% | 1016.9 hPa | 0 mm | - | 566 W/m² | - |
| 1777331995 | 18.33° C | 54% | 1016.9 hPa | 0 mm | - | 622 W/m² | - |
| 1777331095 | 17.78° C | 55% | 1016.9 hPa | 0 mm | - | 647 W/m² | - |
| 1777330195 | 18.33° C | 55% | 1016.9 hPa | 0 mm | - | 710 W/m² | - |
| 1777329295 | 17.22° C | 59% | 1016.9 hPa | 0 mm | - | 763 W/m² | - |
| 1777328395 | 17.22° C | 59% | 1017 hPa | 0 mm | - | 768 W/m² | - |
| 1777327495 | 17.22° C | 59% | 1017.1 hPa | 0 mm | - | 796 W/m² | - |
| 1777326595 | 16.67° C | 59% | 1017.5 hPa | 0 mm | - | 823 W/m² | - |
| 1777325696 | 17.78° C | 57% | 1017.4 hPa | 0 mm | - | 844 W/m² | - |
| 1777324795 | 17.78° C | 55% | 1017.4 hPa | 0 mm | - | 858 W/m² | - |
| 1777323896 | 17.78° C | 55% | 1017.5 hPa | 0 mm | - | 877 W/m² | - |
| 1777322996 | 17.22° C | 51% | 1017.5 hPa | 0 mm | - | 905 W/m² | - |
| 1777322096 | 17.22° C | 46% | 1017.5 hPa | 0 mm | - | 942 W/m² | - |
| 1777321196 | 17.78° C | 52% | 1017.5 hPa | 0 mm | - | 1021 W/m² | - |
| 1777320296 | 16.67° C | 53% | 1017.5 hPa | 0 mm | - | 972 W/m² | - |
| 1777319396 | 16.67° C | 51% | 1017.7 hPa | 0 mm | - | 413 W/m² | - |
| 1777318496 | 17.22° C | 50% | 1017.6 hPa | 0 mm | - | 599 W/m² | - |
| 1777317596 | 17.22° C | 52% | 1017.7 hPa | 0 mm | - | 761 W/m² | - |
* Rain latest hour (hover to see other rain measurements)
** Current wind speed in m/s (hover to see current wind gust speed)